Home   Weather   Bolton   Past weeks

Flag for United Kingdom Past Weather in Bolton, England, United Kingdom — Yesterday and Last 2 Weeks

Now
43 °F

Drizzle. Mostly cloudy.


Feels Like: 41 °F
Forecast: N/A
Wind: 3 mph from North

Location: Manchester Airport

Current Time: Jan 17, 2017 at 7:21:12 pm

Latest Report: Jan 17, 2017 at 6:50 pm


Visibility: 1 mi

Pressure: 30.57 "Hg

Humidity: 100%

Dew Point: 43 °F

Location of BoltonLocation

Past Weather in Bolton — Graph

°F

Bolton Temperature Yesterday

Maximum temperature yesterday: 48 °F (at 5:50 am)
Minimum temperature yesterday: 46 °F (at 12:20 am)
Average temperature yesterday: 47 °F

High & Low Weather Summary for the Past Weeks

 TemperatureHumidityPressure
High52 °F (Jan 11, 3:20 am)100% (Jan 2, 11:50 pm)30.57 "Hg (Jan 2, 11:50 pm)
Low23 °F (Jan 5, 6:50 am)53% (Jan 11, 2:20 pm)29.45 "Hg (Jan 12, 4:20 pm)
Average42 °F88%30.17 "Hg
* Reported Jan 2 5:20 pm — Jan 17 5:50 pm, Bolton, Weather by CustomWeather, © 2017

Note: Actual official high and low records may vary slightly from our data, if they occured in-between our weather recording intervals... More about our weather records

Advertising

Bolton Weather History for the Previous 24 Hours

Scroll right to see more
 ConditionsComfort  
Time TempWeatherWind HumidityBarometerVisibility
5:50 pm
Tue, Jan 17
43 °FDrizzle. Mostly cloudy.3 mph100%30.57 "Hg1 mi
5:20 pm43 °FDrizzle. Mostly cloudy.3 mph100%30.54 "Hg1 mi
4:50 pm45 °FFog.3 mph93%30.54 "Hg1 mi
4:20 pm45 °FFog.3 mph93%30.54 "Hg1 mi
3:50 pm45 °FFog.3 mph93%30.54 "Hg1 mi
3:20 pm45 °FFog.2 mph93%30.54 "Hg2 mi
2:50 pm45 °FMostly cloudy.2 mph93%30.54 "Hg2 mi
2:20 pm45 °FMostly cloudy.2 mph93%30.54 "Hg4 mi
1:50 pm45 °FMostly cloudy.2 mph93%30.54 "Hg4 mi
1:20 pm45 °FMostly cloudy.3 mph93%30.54 "Hg4 mi
12:50 pm45 °FMostly cloudy.3 mph93%30.54 "Hg4 mi
12:20 pm43 °FMostly cloudy.2 mph93%30.54 "Hg4 mi
11:50 am43 °FBroken clouds.2 mph93%30.54 "Hg4 mi
11:20 am43 °FBroken clouds.3 mph93%30.54 "Hg4 mi
10:50 am43 °FBroken clouds.3 mph93%30.54 "Hg4 mi
10:20 am43 °FPartly sunny.5 mph93%30.54 "Hg4 mi
9:50 am43 °FPartly sunny.3 mph93%30.54 "Hg4 mi
9:20 am43 °FDrizzle. Partly sunny.3 mph93%30.54 "Hg4 mi
8:50 am43 °FDrizzle. Partly sunny.2 mph93%30.54 "Hg4 mi
8:20 am43 °FDrizzle. Partly sunny.2 mph93%30.51 "Hg4 mi
7:50 am41 °FPassing clouds.2 mph100%30.51 "Hg3 mi
7:20 am43 °FPassing clouds.2 mph93%30.51 "Hg3 mi
6:50 am43 °FPassing clouds.2 mph93%30.48 "Hg4 mi
6:20 am43 °FLow clouds.3 mph93%30.48 "HgN/A
5:50 am43 °FLow clouds.3 mph93%30.48 "HgN/A
5:20 am43 °FLow clouds.3 mph93%30.48 "HgN/A
4:50 am43 °FLow clouds.2 mph93%30.48 "HgN/A
4:20 am43 °FLow clouds.2 mph93%30.48 "HgN/A
3:50 am43 °FLight rain. Low clouds.2 mph93%30.48 "HgN/A
3:20 am43 °FLow clouds.3 mph93%30.48 "HgN/A
2:50 am43 °FLight rain. Low clouds.3 mph93%30.48 "HgN/A
2:20 am43 °FLight rain. Low clouds.3 mph93%30.48 "HgN/A
1:50 am43 °FLow clouds.3 mph93%30.45 "HgN/A
1:20 am43 °FLow clouds.5 mph100%30.45 "HgN/A
12:50 am45 °FLow clouds.5 mph93%30.45 "HgN/A
12:20 am45 °FMostly cloudy.5 mph93%30.45 "HgN/A
11:50 pm
Mon, Jan 16
46 °FFog.2 mph100%30.42 "Hg1 mi
11:20 pm46 °FFog.No wind100%30.42 "Hg1 mi
10:50 pm46 °FFog.1 mph100%30.42 "Hg1 mi
10:20 pm46 °FFog.5 mph100%30.42 "Hg1 mi
9:50 pm46 °FPassing clouds.5 mph100%30.42 "Hg1 mi
9:20 pm46 °FFog.5 mph100%30.42 "Hg1 mi
8:50 pm46 °FFog.6 mph100%30.39 "Hg1 mi
8:20 pm46 °FFog.5 mph100%30.39 "Hg2 mi
7:50 pm46 °FFog.3 mph100%30.39 "Hg1 mi
7:20 pm46 °FFog.3 mph100%30.39 "Hg1 mi
Weather by CustomWeather, © 2017

See weather overviewHow to use our weather pages